Theta_e
283 283 284 283 284 283 283 283 283 284 283 283 283 284 284 283 283 283 283 282 281 281 281 279 279 279 279 279 279 278 277 276 274 275 277 278 278 278 279 280 280 280 281
283 283 283 284 283 283 283 283 284 283 283 283 283 283 283 283 283 283 282 282 280 279 279 279 278 278 278 278 278 277 276 276 275 272 275 276 277 278 278 278 279 279 279
283 282 282 282 282 282 283 283 283 283 283 283 283 282 283 283 282 282 282 281 280 279 278 278 277 278 277 277 277 276 276 276 276 275 274 277 277 278 277 278 278 279 279
282 282 282 282 282 283 283 283 283 283 283 282 282 282 282 282 282 281 281 279 279 278 278 278 278 278 277 277 276 276 276 276 276 275 275 275 275 276 276 275 274 277 277
282 282 282 282 283 282 282 282 282 282 282 282 282 281 281 281 281 280 279 279 278 278 278 278 278 278 278 278 277 276 276 275 275 274 273 274 273 274 273 275 274 274 275
282 282 283 282 282 282 282 281 281 281 281 281 281 281 280 280 281 282 282 279 278 277 277 277 277 277 276 277 278 278 277 275 274 273 273 272 272 273 274 272 273 271 270
282 282 282 282 281 281 281 281 280 280 280 280 280 279 278 277 279 280 280 279 277 277 276 276 275 276 276 275 276 276 276 277 278 275 272 273 273 273 274 272 272 270 270
282 282 282 281 281 280 280 280 279 279 278 277 276 276 275 275 277 278 278 277 276 276 275 275 274 274 275 274 274 275 275 275 275 276 275 274 274 275 274 272 271 269 269
281 282 281 281 280 279 278 278 278 277 275 274 274 272 272 272 274 276 276 275 274 274 275 274 274 274 275 276 275 273 273 274 275 276 276 276 275 275 273 270 267 265 263
282 282 280 280 279 278 277 276 275 275 273 273 272 272 269 270 272 274 275 275 273 273 273 274 275 274 275 276 274 273 270 270 271 272 268 268 269 268 270 267 266 263 263
281 279 278 278 278 277 275 273 273 272 271 269 268 268 268 269 270 273 274 274 273 272 272 271 272 274 275 276 275 271 270 272 270 263 264 264 264 264 265 266 266 265 262
277 277 276 276 276 275 273 272 272 270 267 266 266 266 268 268 270 271 273 273 274 272 270 271 271 274 273 273 271 271 271 270 263 261 260 260 261 262 263 264 264 264 264
276 275 274 274 273 273 272 270 269 269 267 266 267 266 266 268 268 270 271 272 272 271 271 272 270 271 269 267 267 268 266 261 260 259 259 260 261 262 262 262 263 263 263
275 273 272 272 271 271 271 270 268 267 266 266 266 265 264 265 266 267 267 268 271 270 269 264 266 265 264 264 260 261 260 260 260 259 259 260 261 261 260 262 261 261 261
273 272 271 271 270 269 269 268 268 267 268 265 265 265 262 262 264 270 271 270 270 271 262 258 258 257 257 258 258 258 259 259 258 259 259 259 259 260 260 261 261 260 259
272 271 270 269 268 268 268 268 272 272 271 271 270 267 267 268 269 270 271 271 270 269 257 254 254 255 255 256 256 257 258 258 259 259 259 259 258 259 259 260 260 260 259
272 270 269 268 267 266 265 264 262 265 269 268 267 267 267 267 268 269 269 268 265 262 254 253 253 254 254 255 256 256 256 258 258 258 259 259 259 259 258 258 259 259 259
271 269 268 267 265 264 264 262 261 260 258 257 260 264 264 266 266 267 266 260 253 254 251 251 252 253 254 254 255 256 256 257 257 258 258 258 258 258 258 258 259 258 259
268 266 265 264 263 262 260 259 257 255 254 252 251 256 256 262 263 262 261 253 251 251 251 251 252 253 253 254 254 255 256 256 257 257 258 258 259 259 258 258 259 259 259
265 264 263 261 259 258 257 256 254 253 251 250 249 250 250 252 251 250 250 249 249 249 251 251 252 253 253 253 254 255 256 256 257 257 258 259 259 259 258 258 259 259 259
262 261 260 259 258 257 255 255 253 251 249 247 248 249 262 250 249 248 248 249 249 250 251 251 252 253 254 254 255 256 256 256 257 257 258 259 259 259 260 260 259 260 260
261 259 259 257 256 254 253 252 250 249 248 247 246 245 257 247 246 246 247 248 250 250 251 251 251 253 254 254 256 256 257 257 257 258 259 259 259 259 260 260 260 260 260
259 257 256 255 253 251 249 248 247 247 246 244 244 245 244 245 245 246 247 249 249 250 251 251 251 252 254 255 256 257 257 257 258 259 259 259 259 259 260 260 260 260 261
258 256 254 252 251 251 249 246 245 244 243 244 243 243 244 244 245 246 247 249 249 250 251 251 252 252 253 254 255 256 257 258 259 259 259 259 259 261 261 262 263 264 265
256 254 253 252 250 249 247 244 243 241 241 242 242 242 242 243 244 246 248 248 248 250 250 251 252 252 252 253 253 254 255 257 258 260 261 262 262 264 265 266 266 268 269
255 254 252 251 249 247 246 244 242 241 241 241 242 241 242 243 244 246 247 247 248 249 250 250 251 251 251 253 253 255 258 261 261 263 266 266 266 266 267 268 268 269 269
Wind_Speed
14 14 13 11 11 10 10 10 10 7 8 8 8 8 9 9 8 8 8 7 8 8 7 7 9 8 7 7 7 8 9 9 12 16 14 17 19 16 15 15 14 16 15
15 13 13 12 11 11 11 10 9 10 7 8 7 8 8 8 7 9 10 8 8 8 8 8 9 7 10 9 8 11 11 11 11 17 17 15 18 19 17 18 15 12 14
14 14 13 13 12 13 12 10 8 8 8 7 7 8 8 8 8 9 8 8 8 8 8 9 10 10 11 9 10 11 11 10 11 12 15 12 14 13 16 17 16 16 12
16 15 15 14 14 12 10 10 9 8 8 7 8 8 8 7 7 7 7 7 8 8 8 9 10 11 12 11 11 13 12 12 12 12 13 14 13 14 13 13 17 12 13
17 16 17 14 12 10 10 9 8 8 8 7 6 6 6 5 5 6 6 7 7 8 9 10 10 10 14 15 10 12 12 11 11 11 13 13 13 12 15 13 14 16 15
18 18 15 13 12 12 10 9 8 8 7 6 6 6 6 4 7 8 7 5 7 9 10 9 9 11 12 17 19 22 19 13 14 13 13 14 18 14 12 12 16 18 14
18 17 15 14 13 12 10 9 9 8 6 7 5 5 4 4 5 7 8 6 7 8 10 10 9 9 11 13 17 22 20 21 23 17 18 16 15 14 18 20 16 17 18
17 16 15 15 13 11 10 9 6 5 6 5 5 5 4 2 4 5 7 6 6 8 9 10 10 12 12 15 16 16 15 15 16 12 10 14 16 17 17 18 20 20 15
17 17 15 15 13 11 10 9 5 5 4 4 5 6 3 1 3 5 6 5 7 8 9 10 10 13 16 23 16 15 17 14 8 23 26 27 28 32 29 16 12 13 14
17 16 14 13 13 12 10 8 4 4 6 6 6 5 4 2 4 5 6 5 6 7 8 9 12 15 23 24 16 15 9 12 14 16 11 16 20 19 25 14 11 12 12
10 10 11 11 12 10 9 4 7 8 8 6 6 4 4 2 3 6 8 6 6 6 7 7 8 19 25 24 23 12 16 22 19 8 11 10 10 11 10 10 11 11 11
10 11 11 11 9 9 12 8 8 8 8 6 6 4 3 2 3 5 8 10 11 7 7 7 9 21 21 24 20 26 27 21 9 9 9 10 10 10 10 10 13 13 13
13 12 12 11 10 9 11 10 7 7 6 5 4 3 2 1 1 6 9 10 11 9 7 12 15 20 21 17 18 23 16 8 8 8 9 10 10 10 14 12 13 13 15
15 14 12 13 11 9 7 6 7 6 5 5 4 3 2 0 2 4 6 6 9 9 7 6 12 14 15 14 9 10 7 8 8 9 10 11 11 11 11 9 11 11 12
15 13 12 11 11 10 7 6 6 5 6 5 4 4 3 1 4 7 7 4 4 8 5 4 6 6 7 8 8 8 7 8 8 8 9 10 11 11 12 10 10 11 12
14 11 11 11 9 9 9 9 13 11 10 9 8 5 2 3 7 8 10 12 14 16 4 3 5 6 7 8 8 9 8 9 8 9 10 10 11 11 12 12 10 10 12
17 14 10 12 10 10 9 9 9 6 11 9 7 4 4 4 6 9 10 12 12 8 2 3 6 6 8 8 8 8 10 10 11 9 10 11 11 11 13 12 11 11 13
15 17 11 10 10 8 7 7 6 6 5 2 5 4 5 6 8 9 11 7 4 4 1 4 6 7 7 8 8 9 10 10 9 10 10 11 11 11 12 12 12 13 13
14 10 11 10 9 9 8 7 6 6 4 2 1 1 5 7 7 9 9 2 2 4 5 6 6 7 7 7 8 9 10 10 11 11 11 11 11 11 13 12 13 17 18
12 18 15 11 9 9 7 7 6 5 5 3 1 0 3 2 3 3 1 1 3 5 5 6 7 7 7 8 9 9 10 11 11 10 11 11 12 11 13 14 13 14 14
11 11 16 11 9 8 7 6 6 5 4 3 1 2 2 3 3 2 4 4 5 5 6 7 7 8 8 8 9 9 10 11 11 11 12 12 12 13 13 13 14 14 14
11 12 11 10 9 8 7 6 5 5 4 4 2 2 6 1 2 3 4 5 6 6 6 7 7 8 8 9 10 10 11 12 12 12 12 13 13 14 14 14 14 15 15
13 13 11 9 8 10 7 5 5 4 4 2 1 1 2 2 3 4 6 6 6 6 6 6 8 9 9 9 9 11 12 13 13 13 14 14 14 15 14 15 16 16 16
13 13 12 9 8 7 6 6 4 4 3 2 0 2 3 3 4 6 6 6 6 7 7 7 8 11 11 11 10 11 11 13 13 14 18 15 15 18 16 16 17 20 19
13 12 11 10 9 7 7 5 4 4 3 2 1 2 3 4 5 5 6 6 7 8 9 8 8 12 14 17 18 21 20 23 20 21 15 18 20 23 19 17 18 17 20
12 11 9 8 7 6 6 5 4 3 3 2 3 4 4 4 5 6 7 7 7 8 10 9 11 16 18 16 18 21 22 25 22 26 19 16 16 16 16 20 25 17 20
Wind_Direction
205 209 208 206 216 214 214 215 218 218 216 218 222 225 226 225 219 221 231 237 242 262 268 267 273 270 274 273 271 272 273 268 270 288 294 302 305 307 307 303 298 298 296
206 208 207 206 206 209 218 215 212 222 208 221 220 226 229 229 222 221 228 229 238 258 270 271 274 272 276 278 276 278 275 275 274 279 289 298 296 312 305 303 301 297 296
199 200 203 208 208 211 215 212 205 214 222 219 219 223 226 224 223 221 223 234 243 254 265 265 272 277 281 283 281 281 281 278 279 276 284 292 294 303 303 301 298 300 295
197 197 201 207 207 214 211 205 201 202 216 217 215 224 225 224 226 224 224 237 250 260 261 263 268 270 276 285 283 283 285 284 283 283 285 293 295 303 292 300 300 298 303
197 198 208 199 201 203 204 203 199 194 210 208 205 216 221 217 218 220 232 249 259 265 261 262 272 276 276 282 286 286 289 287 285 291 289 292 295 302 303 304 298 306 301
199 204 201 192 191 199 201 195 193 197 198 195 204 204 204 208 221 238 255 258 265 272 278 281 284 282 279 288 292 293 291 288 291 290 288 292 298 300 305 309 301 300 311
198 201 194 189 192 194 190 184 188 191 178 191 190 189 196 187 227 253 267 275 274 277 283 288 291 290 292 292 295 292 291 284 285 290 292 291 300 314 305 303 307 308 301
198 197 193 186 189 181 175 181 173 166 174 159 155 150 155 185 246 289 296 290 284 287 287 290 291 293 294 298 293 292 293 290 282 285 293 302 296 305 308 306 307 300 290
198 195 186 178 179 167 173 173 154 142 140 149 149 149 147 126 325 315 317 307 286 287 293 298 292 293 295 301 300 299 292 293 327 308 305 314 311 303 303 305 297 299 296
197 192 173 169 165 168 162 146 128 128 137 135 117 112 112 79 348 334 319 294 294 296 295 298 298 303 304 306 300 300 325 314 312 313 325 307 303 297 301 296 296 291 296
172 156 154 155 149 142 128 121 131 127 121 112 112 103 96 92 5 328 317 311 313 308 307 304 303 306 305 313 323 333 315 311 318 325 309 301 295 289 288 289 287 285 286
142 140 132 126 124 128 126 123 125 126 117 119 118 109 87 65 355 328 328 325 311 311 308 304 300 311 324 323 326 311 309 322 322 310 302 295 296 296 294 293 288 280 270
130 125 122 115 116 122 126 128 120 115 124 134 122 107 99 95 306 324 317 310 320 312 300 317 345 336 328 322 316 318 329 316 302 298 296 293 294 292 294 292 287 283 277
132 128 125 120 117 111 111 116 120 126 130 127 129 131 125 91 284 274 265 266 273 302 339 359 338 338 330 323 317 313 305 299 293 291 289 290 293 296 294 294 292 298 295
130 129 123 121 120 112 97 112 118 116 130 132 138 138 139 199 253 304 328 304 313 334 46 14 349 338 324 318 314 309 306 301 298 294 292 294 295 296 294 298 291 292 285
129 131 133 127 123 121 122 118 114 114 109 107 111 126 137 311 329 334 337 335 360 341 35 347 323 316 302 303 302 304 306 302 301 300 295 293 293 295 296 298 292 288 289
133 135 130 127 128 134 135 135 129 90 105 92 87 73 50 356 348 348 355 4 350 12 4 316 305 299 295 298 296 294 298 300 300 293 292 293 293 292 297 294 295 291 289
121 126 132 126 127 128 130 126 127 144 143 128 28 78 23 8 2 8 6 18 349 8 275 297 295 293 292 291 293 294 296 298 297 295 293 292 291 290 293 291 292 292 292
118 128 123 113 114 117 117 113 115 116 112 114 8 337 6 2 8 22 23 69 325 310 296 292 282 283 284 285 287 287 287 289 292 293 290 290 291 291 289 288 288 291 291
115 124 119 117 120 117 115 120 126 128 130 144 144 258 314 11 19 346 6 320 294 274 282 282 285 280 279 280 285 286 288 290 291 290 289 289 289 287 286 288 288 290 289
119 120 119 113 120 122 127 133 136 137 146 149 162 271 74 74 340 322 316 308 286 287 291 284 285 283 283 282 284 286 286 288 288 288 288 289 291 289 288 286 285 285 285
127 123 120 121 121 124 127 132 136 147 140 137 157 297 1 49 327 297 287 276 272 270 268 270 278 278 279 281 286 288 289 289 289 287 288 290 290 290 289 287 286 286 286
125 120 116 115 120 124 122 133 150 140 135 145 146 334 328 319 295 279 274 278 281 282 276 267 273 280 279 279 280 282 284 285 285 287 287 289 289 286 287 286 285 285 283
123 119 122 126 134 130 141 147 140 127 140 141 348 311 301 282 277 278 281 285 287 281 277 275 274 276 285 285 285 282 279 280 282 283 286 283 282 286 285 283 282 283 285
118 122 130 137 136 146 135 135 134 144 149 184 265 269 268 269 273 280 283 286 282 283 285 283 280 282 283 285 284 285 283 285 284 283 286 283 279 283 286 286 285 288 296
120 125 127 127 133 137 137 139 151 153 185 214 246 257 262 276 280 283 287 283 281 286 290 287 282 281 284 287 285 285 290 293 296 293 293 294 293 292 289 300 299 297 298